Terug naar catalogus

COSMOS 886 DEB

ActiefUNKNOWN
NORAD 9722·DEBRIS·🇷🇺 Russia

Gelanceerd Dec 27, 1976 vanaf Baikonur Cosmodrome

Loading…

Volgende Passages (komende 24 uur)

TLE

VersSource: Space-Track

Epoch: Sep 14, 2026, 05:17 UTC

1 09722U 76126T   26257.22025442  .00001170  00000-0  23651-2 0  9993
2 09722  65.7544 189.9838 0783573   6.2234 354.7838 12.55279544248151

Volg COSMOS 886 DEB in realtime met AllMySat

Download on the App Store